CamptonHillsWeather.com

Find the Weather for any City, State  
or Zipcode, or Country:

Campton Hills, IL Weather
Local Radar

Local Radar

Graphs, Details
Graphs and Gauges
Detailed Weather
Detailed Reports
Ajax Version (old)
Central Kane Co Summary
Davis Current Weather Graphs
Davis 24 Hour Weather History

CW3778 Data

Weather Underground
Maps
Temperature
Heat Index
Windchill
Humidity
Radar
Dew Point
Wind
Visibility
Visible Satellite
Satellite
Fronts
Snow Depth
Jet Stream
Flight Rules
Forecast Maps
Temperature Forecast
Maximum Temperature Forecast
Minimum Temperature Forecast
Dewpoint Forecast
Prevalent Weather
12Hr Probability of Precip.
Sky Cover
Health Maps
UV Forecast
Air Quality
Peak Air Quality Index
Weather Station
Davis Instruments Vantage Pro
Current Conditions [Select Refresh to Update]

Updated: 10:39am on 4/19/15

(location)
Currently:
67.9F

Clear
Clear

High: 67.9 F< 
(10:38am
Low: 51.5 F 
(6:12am)
Wind: SE 5 mph
Light Breeze
Gust: 12 mph
Today's High Wind: 13 mph (9:32am)
Humidity: 42%
Pressure: 29.74 in  (Falling
Pressure Rate: -0.033 in/hr
Dew Point: 44.0F
Wind Chill: 67.9 F
Heat Index (feels like): 68.0 F
Comfort Level: Comfortable
Temperature Rate:  4.19F/hr
 
5 Day Forecast
 
Sun Mon Tue Wed Thu
Clear Clear Clear Clear Clear
Chance T-storms Rain Chance Rain Mostly Cloudy Mostly Cloudy
65 58 55 53 53
47 36 35 31 32

Records and Normals
 
Temperature Forecast Normal Record
High 65 62 79
(2005)
Low 47 39 30
(1999)
 
Links
 
 
Weather Advisories
No Advisories
Full Advisory Text...
Weather Map

Web Cam

Almanac
 
Sunrise:  
6:05am
Moonrise: 
6:50am

Moon Phase:
0%

Sunset: 
7:37pm
Moonset:  
8:56pm
 Star Chart...
Rainfall Totals
Hourly Rain 0.00 in
Daily Rain: 0.00 in
Monthly Rain: 2.38 in
Yearly Rain: 4.36 in
Normal Rain, month to date: 3.07 in
Normal Rain, year to date: 5.40 in
Link to Village of Campton Hills Map

Link to Counties of Illinois Map

Local Weather Exchange Network
Station ID City 
(Click for Map Location)
Neighborhood 
(Click for History)
Last Update (Date & Time) Temperature
 ()
Dew
Point ()
Humidity 
(%)
Wind 
(mph)
from the Wind Gust 
(mph) 
Pressure(in) Hourly
Rain(in)
KILSAINT10 Saint Charles Saint Charles Burr Road 04/19 10:21:32 68.0 41.0 38 5 South 0 29.48 0.00
MD5528 Wasco APRSWXNET 04/19 10:04:00 65.0 41.0 41 4 NE 0 29.73 0.00
KILGENEV5 Geneva meso_neigh3 04/19 10:31:26 67.6 43.0 41 8 South 10 29.68 0.00
KILSAINT8 Saint Charles St. Charles Near West Side 04/19 10:29:26 76.6 44.0 32 3 South 0 29.53 0.00
KILWAYNE4 Wayne Hampton Course 04/19 10:26:00 67.6 46.0 46 0 North 0 29.86 0.00
KILSAINT7 Saint Charles Silver Glen 04/19 10:31:31 65.8 37.0 35 6 East 7 29.34 0.00
KILSOUTH6 South Elgin Thornwood 04/19 10:32:15 68.9 47.0 45 4 WNW 6 27.84 0.00
KILCAMPT3 Campton Hills Campton Hills 04/19 10:32:18 68.4 40.0 36 4 ENE 8 29.75 0.00
KILSAINT6 Saint Charles 3 Lakes 04/19 10:30:39 68.7 42.0 38 5 SSE 0 29.50 0.00
KILSAINT9 Saint Charles Fox Chase 04/19 10:32:17 67.8 38.0 33 4 ENE 5 29.74 0.00
KILGENEV6 Geneva Dover Ridge 04/19 10:32:08 68.4 42.0 39 5 South 5 29.72 0.00
KILGENEV10 Geneva Southampton Drive 04/19 10:26:17 67.5 48.0 49 0 North 0 29.82 0.00
KILSTCHA8 St. Charles Ronzheimer Ave. & S. Tyler Rd. 04/19 10:32:18 68.7 43.0 40 13 East 13 29.72 0.00
KILGENEV9 Geneva Saint Andrews Circle 04/19 10:26:10 66.7 47.0 49 0 North 0 29.81 0.00
KILGENEV3 Geneva Mill Creek (NE) 04/19 10:32:11 68.2 44.0 41 9 East 13 29.73 0.00
KILSTCHA1 St Charles CamptonHillsWeather.com Central Kane County 04/19 10:32:17 67.6 44.0 43 5 SSE 12 29.74 0.00
KILGENEV7 Geneva Eldorado Drive 04/19 10:25:50 68.2 43.0 40 0 North 0 29.68 0.00
KILSOUTH5 South Elgin Concord Park 04/19 10:31:02 68.2 44.0 42 5 NE 0 29.51 0.00
KILGENEV2 Geneva Mill Creek 04/19 10:28:36 67.3 42.0 40 7 East 11 29.68 0.00
KILBATAV7 Batavia Charleston Street 04/19 10:25:52 66.7 45.0 45 0 North 0 29.83 0.00
KILELGIN16 Elgin Providence Subdivision 04/19 10:19:11 71.6 42.0 35 3 SE 0 29.52 0.00
KILELBUR10 Elburn Prairie Valley North 04/19 10:32:14 70.0 42.0 37 9 ESE 12 29.84 0.00
KILELBUR9 Elburn Griffith Avenue 04/19 10:02:02 63.0 43.0 48 0 North 0 29.00 0.00
KILELBUR5 Elburn Prairie Highlands 04/19 10:30:15 68.3 45.0 44 3 East 12 29.73 0.00
KILWESTC12 West Chicago Woodland Avenue 04/19 10:26:25 66.9 46.0 46 0 North 0 29.82 0.00
MD7322 Elburn APRSWXNET 04/19 10:04:00 67.0 43.0 42 3 East 9 29.74 0.00
KILBATAV3 Batavia West Batavia 04/19 10:21:59 67.0 44.0 44 12 ESE 0 29.70 0.00
KILELBUR6 Elburn Columbine Square 04/19 10:25:41 67.5 44.0 43 10 NE 17 29.68 0.00
KILBATAV5 Batavia Fermi National Accelerator Laboratory 04/19 10:27:15 70.8 44.0 38 3 ESE 6 29.69 0.00
KILELBUR8 Elburn Columbine 04/19 10:29:23 69.8 44.0 40 7 East 19 29.70 0.00
KILWESTC5 West Chicago THEBROWNHOUSE.ORG 04/19 10:32:11 69.5 34.0 27 0 ESE 0 29.74 0.00
KILWESTC8 West Chicago Ingalton Hills Estates 04/19 10:32:13 68.0 41.0 37 8 NNE 8 29.77 0.00
KILELGIN10 Elgin Wing Park 04/19 10:32:17 70.0 40.0 34 3 ESE 7 29.74 0.00
MUP188 Elburn MesoWest 04/19 07:30:00 57.0 0.0 0 0 North 0 0.00 0.00
KILELGIN17 Elgin Springbrook Court 04/19 10:26:06 68.4 43.0 40 0 North 0 29.64 0.00
KDPA Chicago DuPage Official Station 04/19 09:52:00 65.0 38.0 37 12 East --- 29.76 ---
KARR Aurora Official Station 04/19 09:52:00 67.0 38.0 34 21 ESE --- 29.76 ---
KDKB DeKalb Official Station 04/19 10:15:00 66.0 39.0 38 17 ESE --- 29.76 ---
KORD Chicago Official Station 04/19 09:51:00 61.0 35.0 38 10 East --- 29.78 ---
Full Advisory Text
No Warnings

Ambient Weather and Weather Underground
 Never base important decisions on this or any weather information obtained from the Internet
Updated Automatically by Ambient Weather's Virtual Weather Station  V13.01